Regional Weather Roundup
Issued by NWS

Home | Current Version | Previous Version | Graphics & Text | Print | Product List | Glossary On
Versions: 1 2 3 4 5 6 7 8 9 10 11 12 13 14 15 16 17 18 19 20 21 22 23 24 25 26 27 28 29 30 31 32 33 34 35 36 37 38 39 40 41 42 43 44 45 46 47 48 49 50
000
ASUS43 KDTX 111510
RWRMI
MICHIGAN HOURLY REGIONAL WEATHER ROUNDUP
NATIONAL WEATHER SERVICE DETROIT/PONTIAC MI
1100 AM EDT FRI JUL 11 2014

NOTE: "FAIR" INDICATES FEW OR NO CLOUDS BELOW 12,000 FEET WITH NO
SIGNIFICANT WEATHER AND/OR OBSTRUCTION TO VISIBILITY.

MIZ047>049-052>055-059>063-066>070-074>076-081>083-111600-
SOUTHEAST LOWER MICHIGAN

CITY           SKY/WX    TMP DP  RH WIND       PRES   REMARKS
ADRIAN         SUNNY     73  61  65 SE5       30.26R
ALMA           SUNNY     72  53  51 SE5       30.25S
ANN ARBOR      SUNNY     73  58  59 VRB5      30.25R
BAD AXE        SUNNY     72  52  49 SW3       30.26S
DETROIT CITY   SUNNY     76  58  53 VRB5      30.25R
DETROIT        MOSUNNY   74  57  55 CALM      30.25S
FLINT          MOSUNNY   76  58  53 S6        30.26R
GROSSE ILE     SUNNY     73  57  56 S5        30.24R
HILLSDALE      SUNNY     73  60  63 CALM      30.26R
HOWELL         SUNNY     73  58  60 CALM      30.26R

CITY           SKY/WX    TMP DP  RH WIND       PRES   REMARKS
JACKSON        MOSUNNY   73  58  59 CALM      30.25S
LAMBERTVILLE   SUNNY     75  59  57 E7        30.25R
LANSING        SUNNY     74  56  53 CALM      30.25S
LAPEER         NOT AVBL
MASON          MOSUNNY   73  58  60 CALM      30.26R
MONROE         SUNNY     73  55  53 CALM      30.23R
MT. CLEMENS    MOSUNNY   72  58  61 E6        30.24R
PONTIAC        MOSUNNY   72  55  55 W6        30.25R
PORT HOPE        N/A     68  59  73 E6        30.24R
PORT HURON     SUNNY     72  59  64 CALM      30.26R
TRI CITIES     SUNNY     74  56  53 SW5       30.25S
YPSILANTI      SUNNY     78  58  49 SE5       30.26R
$$
MIZ043>046-050>051-056>058-064>065-071>073-077>080-111600-
SOUTHWEST LOWER MICHIGAN

CITY           SKY/WX    TMP DP  RH WIND       PRES   REMARKS
BATTLE CREEK   SUNNY     73  56  54 CALM      30.25S
BENTON HARBOR  SUNNY     73  56  54 S5        30.22F
BIG RAPIDS     MOSUNNY   72  56  57 S6        30.22F
COLDWATER      SUNNY     74  61  64 SE5       30.24F
HOLLAND        SUNNY     76  58  53 SE8       30.23F
GRAND RAPIDS   PTSUNNY   75  58  55 S7        30.23F
KALAMAZOO      MOSUNNY   74  52  46 SW6       30.24F
MARSHALL       SUNNY     71  58  63 CALM      30.24F
MUSKEGON       MOSUNNY   76  54  46 S10       30.21F
$$
MIZ016>042-111600-
NORTHERN LOWER MICHIGAN

CITY           SKY/WX    TMP DP  RH WIND       PRES   REMARKS
ALPENA         SUNNY     74  53  48 SW8       30.22S
BEAVER ISLAND  CLOUDY    69  50  51 SW9G18    30.17S
BELLAIRE       PTSUNNY   72  54  52 S5        30.19F
CADILLAC       MOSUNNY   72  58  61 SW7       30.22S
CHARLEVOIX     PTSUNNY   72  52  50 S7        30.21F
FRANKFORT      PTSUNNY   72  46  39 S3        30.18F
GAYLORD        MOSUNNY   71  55  56 SW7       30.22F
GRAYLING       MOSUNNY   73  53  49 SW7       30.23F
HARBOR SPRINGS PTSUNNY   70  55  59 CALM      30.18F
HOUGHTON LAKE  SUNNY     72  54  53 SW6       30.23F
MANISTEE       PTSUNNY   66  57  72 S3        30.21F
OSCODA         SUNNY     75  53  45 SW8       30.22F
PELLSTON       CLOUDY    71  51  49 S3        30.19F
TRAVERSE CITY  PTSUNNY   75  54  47 SW8       30.18F
$$
MIZ007>008-015-111600-
EASTERN UPPER MICHIGAN

CITY           SKY/WX    TMP DP  RH WIND       PRES   REMARKS
KINROSS        MOSUNNY   72  54  53 S9        30.17F
MACKINAC ISLAN MOSUNNY   69  51  53 S3        30.18F
NEWBERRY       CLOUDY    63  54  71 S16       30.14F
S. S. MARIE    MOSUNNY   67  55  65 SE7       30.16F
$$
MIZ004>006-011>014-085-111600-
CENTRAL UPPER MICHIGAN

CITY           SKY/WX    TMP DP  RH WIND       PRES   REMARKS
MANISTIQUE     PTSUNNY   59  52  79 S13       30.14F
ESCANABA       PTSUNNY   66  55  68 S12       30.12F
MENOMINEE      PTSUNNY   73  61  64 S8        30.11F
SAWYER-GWINN   SUNNY     64  57  77 S7        30.10F
$$
MIZ001>003-009>011-084-111600-
WESTERN UPPER MICHIGAN

CITY           SKY/WX    TMP DP  RH WIND       PRES   REMARKS
IRON MOUNTAIN  CLOUDY    68  61  78 SE5       30.09F
HOUGHTON       CLOUDY    67  61  81 S6        30.01F
COPPER HARBOR    N/A     69  60  73 VRB5      30.01F
$$

ABBREVIATIONS USED IN REMARKS
   TC - TEMPERATURE IN CELSIUS
  WCI - WIND CHILL INDEX
   HX - HEAT INDEX
  VSB - VISIBILITY



USA.gov is the U.S. government's official web portal to all federal, state and local government web resources and services.